Ballina Observation History
Time Wind Speed Temp Pressure Rel. Hum Rain
26/01:30pm SE 10-12 kts 22.6°c 1010.9 hPa 77% 0.0mm
26/01:00pm SE 9-11 kts 22.5°c 1011.7 hPa 80% 0.0mm
26/12:30pm S 7-10 kts 22.4°c 1011.9 hPa 77% 0.0mm
26/12:00pm S 8-10 kts 21.9°c 1012.2 hPa 80% 0.0mm
26/11:42am SW 8-11 kts 21.7°c 1012.2 hPa 81% 0.0mm
26/11:30am SSW 8-11 kts 22.0°c 1012.3 hPa 80% 0.0mm
26/11:00am SSW 7-10 kts 21.9°c 1012.4 hPa 82% 0.0mm
26/10:30am S 7-9 kts 21.2°c 1012.7 hPa 86% 0.0mm
26/10:00am WSW 4-6 kts 20.6°c 1012.5 hPa 89% 0.0mm
26/09:30am SW 7-10 kts 20.1°c 1012.7 hPa 89% 0.0mm
26/09:00am SW 7-10 kts 19.9°c 1012.3 hPa 90% 12.2mm
26/08:30am WSW 7-10 kts 19.3°c 1012.3 hPa 91% 12.2mm
26/08:00am SW 7-10 kts 19.3°c 1012.2 hPa 92% 12.2mm
26/07:30am WSW 6-8 kts 18.9°c 1011.9 hPa 93% 12.2mm
26/07:00am WSW 7-8 kts 18.7°c 1011.2 hPa 94% 12.2mm
26/06:30am WSW 4-6 kts 18.3°c 1010.8 hPa 94% 12.2mm
26/06:00am WSW 4-6 kts 18.3°c 1010.4 hPa 94% 12.2mm
26/05:30am SW 5-6 kts 18.5°c 1010.4 hPa 93% 12.2mm
26/05:00am WSW 5-7 kts 18.5°c 1010.3 hPa 93% 12.2mm
26/04:59am WSW 5-7 kts 18.5°c 1010.3 hPa 93% 12.2mm
26/04:30am S 7-11 kts 18.3°c 1010.1 hPa 93% 12.2mm
26/04:28am S 7-11 kts 18.4°c 1010.1 hPa 93% 12.2mm
26/04:00am SSW 10-15 kts 18.5°c 1009.8 hPa 94% 12.2mm
26/03:30am SSW 7-9 kts 18.8°c 1010.1 hPa 95% 12.2mm
26/03:00am SSW 7-10 kts 19.1°c 1009.8 hPa 95% 12.2mm
26/02:35am SSW 3-5 kts 19.0°c 1009.9 hPa 95% 12.2mm
26/02:30am SSW 4-6 kts 19.0°c 1009.8 hPa 95% 12.2mm
26/02:00am SW 7-9 kts 19.0°c 1010.0 hPa 96% 12.0mm
26/01:56am WSW 7-9 kts 19.0°c 1010.1 hPa 96% 12.0mm
26/01:37am W 5-7 kts 19.0°c 1010.5 hPa 95% 11.6mm
26/01:30am WSW 6-8 kts 19.0°c 1011.1 hPa 95% 10.6mm
26/01:13am WSW 6-8 kts 19.1°c 1010.9 hPa 95% 10.0mm
26/01:09am WSW 6-7 kts 19.1°c 1011.0 hPa 95% 9.8mm
26/01:00am WSW 7-9 kts 19.2°c 1011.3 hPa 95% 9.2mm
26/12:57am WSW 7-9 kts 19.2°c 1011.4 hPa 95% 9.0mm
26/12:48am WNW 7-9 kts 19.3°c 1011.6 hPa 95% 8.2mm
26/12:30am WSW 9-12 kts 19.5°c 1011.5 hPa 95% 6.4mm
26/12:13am SW 8-11 kts 20.1°c 1011.1 hPa 91% 1.2mm
26/12:00am SW 7-10 kts 20.5°c 1011.1 hPa 86% 0.4mm
Time Wind Speed Temp Pressure Rel. Hum Rain
25/11:30pm NW 4-7 kts 20.5°c 1010.9 hPa 82% 0.4mm
25/11:00pm WSW 3-5 kts 20.8°c 1010.9 hPa 80% 0.4mm
25/10:30pm WNW 3-6 kts 21.0°c 1010.8 hPa 77% 0.4mm
25/10:00pm WNW 7-10 kts 20.8°c 1010.6 hPa 80% 0.4mm
25/09:30pm NNW 9-11 kts 20.3°c 1010.4 hPa 84% 0.4mm
25/09:00pm N 15-20 kts 20.7°c 1009.9 hPa 81% 0.4mm
25/08:30pm N 9-13 kts 20.5°c 1009.5 hPa 82% 0.4mm
25/08:00pm NW 8-13 kts 20.2°c 1009.7 hPa 81% 0.4mm
25/07:30pm N 12-17 kts 20.2°c 1008.8 hPa 82% 0.4mm
25/07:00pm N 15-21 kts 20.0°c 1008.4 hPa 84% 0.4mm
25/06:30pm NNE 13-18 kts 21.7°c 1008.6 hPa 80% 0.2mm
25/06:26pm NNE 12-17 kts 22.2°c 1008.6 hPa 86% 0.2mm
25/06:16pm NNE 13-19 kts 22.9°c 1008.4 hPa 85% 0.2mm
25/06:00pm NNE 12-15 kts 23.2°c 1008.3 hPa 85% 0.0mm
25/05:30pm NNE 7-9 kts 23.2°c 1007.9 hPa 85% 0.0mm
25/05:00pm N 12-19 kts 23.3°c 1007.2 hPa 84% 0.0mm
25/04:30pm NNE 13-19 kts 23.6°c 1006.8 hPa 84% 0.0mm
25/04:00pm N 14-21 kts 23.7°c 1007.5 hPa 87% 0.0mm
25/03:30pm N 14-21 kts 23.4°c 1007.3 hPa 86% 0.0mm
25/03:00pm NNE 9-14 kts 23.9°c 1007.8 hPa 83% 0.0mm
25/02:30pm NNE 15-21 kts 25.6°c 1007.7 hPa 70% 0.0mm
25/02:00pm NE 15-20 kts 26.3°c 1008.2 hPa 69% 0.0mm
25/01:30pm NE 13-18 kts 27.7°c 1008.6 hPa 66% 0.0mm
25/01:00pm NE 12-17 kts 27.6°c 1009.0 hPa 71% 0.0mm
25/12:30pm NE 12-16 kts 27.2°c 1009.3 hPa 73% 0.0mm
25/12:00pm NE 11-15 kts 25.8°c 1009.6 hPa 72% 0.0mm
25/11:30am NNE 9-14 kts 26.1°c 1009.9 hPa 71% 0.0mm
25/11:00am N 7-13 kts 26.0°c 1010.2 hPa 66% 0.0mm
25/10:30am NNE 9-15 kts 26.4°c 1010.2 hPa 68% 0.0mm
25/10:00am NE 10-14 kts 25.2°c 1010.3 hPa 72% 0.0mm
25/09:30am NNE 7-11 kts 24.7°c 1010.4 hPa 68% 0.0mm
25/09:00am NNE 6-8 kts 24.0°c 1010.4 hPa 76% 8.8mm
25/08:30am N 7-9 kts 23.2°c 1010.2 hPa 77% 8.8mm
25/08:00am N 6-10 kts 22.2°c 1010.2 hPa 84% 8.8mm
25/07:30am N 4-7 kts 20.6°c 1009.8 hPa 89% 8.8mm
25/07:00am N 5-6 kts 19.5°c 1009.5 hPa 95% 8.8mm
25/06:30am NNE 4-6 kts 18.5°c 1009.2 hPa 97% 8.8mm
25/06:26am NNE 5-6 kts 18.4°c 1009.2 hPa 97% 8.8mm
25/06:00am CALM 0 kts 17.3°c 1008.8 hPa 96% 8.8mm
25/05:30am W 1-3 kts 17.6°c 1008.6 hPa 96% 8.8mm
25/05:00am W 5 kts 17.6°c 1008.5 hPa 95% 8.8mm
25/04:43am CALM 0 kts 18.1°c 1008.2 hPa 94% 8.8mm
25/04:30am NNE 1-4 kts 18.3°c 1008.1 hPa 94% 8.8mm
25/04:00am W 3-6 kts 18.6°c 1008.3 hPa 94% 8.8mm
25/03:30am S 2-5 kts 19.0°c 1008.0 hPa 92% 8.8mm
25/03:00am N 4-7 kts 19.6°c 1008.0 hPa 90% 8.8mm
25/02:30am N 8-11 kts 19.6°c 1008.0 hPa 89% 8.8mm
25/02:00am N 9-13 kts 19.5°c 1008.0 hPa 89% 8.8mm
25/01:30am N 11-14 kts 19.5°c 1008.2 hPa 91% 8.8mm
25/01:00am NNE 7-9 kts 19.4°c 1008.6 hPa 94% 8.8mm
25/12:30am NNE 7-10 kts 19.3°c 1009.1 hPa 95% 8.8mm
25/12:00am NE 8-10 kts 19.4°c 1009.0 hPa 95% 8.8mm
Time Wind Speed Temp Pressure Rel. Hum Rain
24/11:30pm NNE 6-7 kts 19.6°c 1009.2 hPa 94% 8.8mm
24/11:00pm N 6-9 kts 19.7°c 1009.7 hPa 94% 8.8mm
24/10:47pm NNE 8-12 kts 19.7°c 1009.8 hPa 94% 8.8mm
24/10:30pm N 9-13 kts 19.8°c 1010.1 hPa 94% 8.6mm
24/10:00pm NNE 10-15 kts 19.9°c 1010.3 hPa 94% 8.6mm
24/09:30pm NNE 10-15 kts 20.0°c 1010.5 hPa 95% 8.6mm
24/09:22pm NNE 9-15 kts 20.0°c 1010.6 hPa 95% 8.6mm
24/09:00pm NNE 9-14 kts 19.8°c 1010.4 hPa 95% 8.6mm
24/08:30pm N 11-18 kts 19.8°c 1010.3 hPa 95% 8.0mm
24/08:23pm N 12-18 kts 19.8°c 1010.1 hPa 95% 8.0mm
24/08:00pm NNE 11-16 kts 19.9°c 1009.8 hPa 95% 8.0mm
24/07:46pm NNE 9-15 kts 19.9°c 1009.8 hPa 95% 8.0mm
24/07:30pm NNE 12-19 kts 19.9°c 1009.7 hPa 94% 8.0mm
24/07:00pm NNE 10-13 kts 20.5°c 1009.6 hPa 95% 7.8mm
24/06:30pm NNE 8-11 kts 20.8°c 1009.5 hPa 95% 7.6mm
24/06:00pm NNE 8-11 kts 20.8°c 1009.4 hPa 94% 7.2mm
24/05:30pm NNE 9-13 kts 21.0°c 1009.7 hPa 94% 6.6mm
24/05:00pm NNE 9-12 kts 21.3°c 1009.6 hPa 94% 6.0mm
24/04:30pm NNE 8-11 kts 21.5°c 1009.5 hPa 94% 5.4mm
24/04:00pm NNE 9-12 kts 21.2°c 1009.7 hPa 93% 4.8mm
24/03:30pm N 9-12 kts 21.3°c 1010.0 hPa 91% 3.6mm
24/03:00pm N 8-13 kts 21.7°c 1010.1 hPa 92% 2.4mm
24/02:30pm NNE 9-14 kts 21.9°c 1010.2 hPa 90% 1.8mm
24/02:00pm N 10-14 kts 22.2°c 1010.5 hPa 87% 1.0mm
24/01:30pm N 9-15 kts 23.6°c 1010.5 hPa 77% 1.0mm
24/01:00pm N 9-15 kts 24.1°c 1010.7 hPa 73% 1.0mm
24/12:30pm N 9-13 kts 24.0°c 1011.1 hPa 76% 1.0mm
24/12:00pm N 11-16 kts 24.0°c 1011.2 hPa 73% 1.0mm
24/11:30am N 12-18 kts 24.0°c 1011.5 hPa 73% 1.0mm
24/11:00am N 9-13 kts 23.4°c 1011.9 hPa 78% 1.0mm
24/10:30am N 9-14 kts 22.9°c 1012.2 hPa 83% 1.0mm
24/10:00am N 8-10 kts 21.8°c 1012.5 hPa 90% 1.0mm
24/09:30am N 7-9 kts 21.2°c 1012.9 hPa 90% 1.0mm
24/09:14am N 7-11 kts 20.9°c 1013.0 hPa 89% 1.0mm
24/09:00am N 9-13 kts 21.2°c 1013.1 hPa 87% 0.2mm
24/08:30am N 11-17 kts 22.1°c 1012.9 hPa 78% 0.0mm
24/08:00am NNE 9-13 kts 22.3°c 1013.0 hPa 79% 0.0mm
24/07:30am N 9-13 kts 22.3°c 1013.0 hPa 78% 0.0mm
24/07:00am N 9-12 kts 21.8°c 1012.7 hPa 79% 0.0mm
24/06:30am N 12-19 kts 21.8°c 1012.3 hPa 80% 0.0mm
24/06:00am N 8-13 kts 21.3°c 1011.5 hPa 82% 0.0mm
24/05:30am N 7-11 kts 21.2°c 1011.5 hPa 84% 0.0mm
24/05:00am N 9-12 kts 21.3°c 1011.4 hPa 83% 0.0mm
24/04:30am N 11-16 kts 21.4°c 1011.1 hPa 83% 0.0mm
24/04:00am N 9-13 kts 21.3°c 1011.1 hPa 83% 0.0mm
24/03:30am NNE 10-16 kts 21.1°c 1011.1 hPa 83% 0.0mm
24/03:00am NNE 9-13 kts 21.3°c 1011.2 hPa 81% 0.0mm
24/02:30am N 11-16 kts 21.5°c 1011.2 hPa 80% 0.0mm
24/02:00am N 10-15 kts 21.5°c 1011.6 hPa 80% 0.0mm
24/01:30am N 9-14 kts 21.6°c 1012.4 hPa 81% 0.0mm
24/01:00am N 10-15 kts 21.8°c 1013.0 hPa 81% 0.0mm
24/12:30am NNE 10-14 kts 21.6°c 1012.9 hPa 81% 0.0mm
24/12:00am N 11-15 kts 21.6°c 1013.1 hPa 82% 0.0mm